SWA1721 TNCM-KMCO

Flight info

Callsign SWA1721
Flight time N/A
Altitude 38000
Route PJM B520 STT RTE6 SJU DCT ACONY Y280 SAPPO Y399 ZQA DCT OCTAL MUNGI1
Aircraft B737/M-SADE2E3GIJ4RWZ/LB1D1

Departure

Time 2026-05-08 00:47
Airport Princess Juliana International Airport (TNCM)

Arrival

Time N/A
Airport Orlando International Airport (KMCO)
Time Latitude Longitude Altitude Speed Heading
2026-05-08 00:11 18.04321 -63.11432 28 ft 0 kts 350°
2026-05-08 00:24 18.04320 -63.11432 0 ft 0 kts 350°
2026-05-08 00:39 18.04314 -63.11430 28 ft 4 kts 350°
2026-05-08 00:39 18.04287 -63.11425 28 ft 4 kts 347°
2026-05-08 00:39 18.04261 -63.11418 28 ft 4 kts 339°
2026-05-08 00:40 18.04239 -63.11404 28 ft 4 kts 302°
2026-05-08 00:40 18.04235 -63.11393 28 ft 2 kts 260°
2026-05-08 00:43 18.04233 -63.11405 28 ft 4 kts 260°
2026-05-08 00:43 18.04223 -63.11460 28 ft 11 kts 254°
2026-05-08 00:44 18.04180 -63.11529 27 ft 12 kts 231°
2026-05-08 00:44 18.04127 -63.11598 27 ft 13 kts 231°
2026-05-08 00:44 18.04066 -63.11683 27 ft 15 kts 244°
2026-05-08 00:44 18.04050 -63.11790 26 ft 14 kts 262°
2026-05-08 00:45 18.04035 -63.11883 27 ft 12 kts 256°
2026-05-08 00:45 18.03997 -63.11947 27 ft 9 kts 233°
2026-05-08 00:45 18.03950 -63.11964 27 ft 6 kts 157°
2026-05-08 00:45 18.03942 -63.11936 26 ft 0 kts 81°
2026-05-08 00:46 18.03972 -63.11733 26 ft 62 kts 81°
2026-05-08 00:46 18.04068 -63.11059 27 ft 122 kts 81°
2026-05-08 00:46 18.04211 -63.10038 238 ft 147 kts 80°
2026-05-08 00:47 18.04305 -63.08975 796 ft 153 kts 97°
2026-05-08 00:47 18.03737 -63.08064 1286 ft 158 kts 149°
2026-05-08 00:47 18.02642 -63.07902 1756 ft 169 kts 185°
2026-05-08 00:47 18.01531 -63.08508 1966 ft 197 kts 226°
2026-05-08 00:48 18.00602 -63.09697 2178 ft 223 kts 230°
2026-05-08 00:48 17.99581 -63.11036 2379 ft 246 kts 230°
2026-05-08 00:48 17.98466 -63.12498 2609 ft 269 kts 230°
2026-05-08 00:48 17.97265 -63.14060 3226 ft 277 kts 230°
2026-05-08 00:49 17.96041 -63.15643 3996 ft 280 kts 230°
2026-05-08 00:49 17.94802 -63.17237 4801 ft 283 kts 231°
2026-05-08 00:49 17.93547 -63.18845 5703 ft 286 kts 231°
2026-05-08 00:49 17.92280 -63.20466 6724 ft 288 kts 231°
2026-05-08 00:50 17.91002 -63.22099 7673 ft 291 kts 231°
2026-05-08 00:50 17.89867 -63.23872 8535 ft 296 kts 249°
2026-05-08 00:50 17.89516 -63.25975 9480 ft 294 kts 276°
2026-05-08 00:50 17.90020 -63.28026 10360 ft 292 kts 298°
2026-05-08 00:51 17.91028 -63.29918 10781 ft 313 kts 303°
2026-05-08 00:51 17.92244 -63.31936 10962 ft 339 kts 304°
2026-05-08 00:51 17.93562 -63.34063 11405 ft 353 kts 304°
2026-05-08 00:51 17.94911 -63.36251 12141 ft 358 kts 304°
2026-05-08 00:52 17.96259 -63.38463 12967 ft 360 kts 304°
2026-05-08 00:52 17.97602 -63.40686 13758 ft 362 kts 304°
2026-05-08 00:52 17.98953 -63.42937 14439 ft 366 kts 303°
2026-05-08 00:52 18.00316 -63.45216 15066 ft 371 kts 303°
2026-05-08 00:53 18.01693 -63.47524 15689 ft 375 kts 303°
2026-05-08 00:53 18.03088 -63.49865 16325 ft 380 kts 303°
2026-05-08 00:53 18.04496 -63.52229 16950 ft 384 kts 303°
2026-05-08 00:53 18.05920 -63.54622 17569 ft 388 kts 303°
2026-05-08 00:54 18.07360 -63.57041 18176 ft 392 kts 303°
2026-05-08 00:54 18.08815 -63.59487 18685 ft 397 kts 303°
2026-05-08 00:54 18.10288 -63.61964 19151 ft 402 kts 304°
2026-05-08 00:54 18.11779 -63.64471 19603 ft 407 kts 304°
2026-05-08 00:55 18.13141 -63.67105 20037 ft 415 kts 292°
2026-05-08 00:55 18.13813 -63.70085 20513 ft 421 kts 282°
2026-05-08 00:55 18.14300 -63.73100 20940 ft 427 kts 282°
2026-05-08 00:55 18.14783 -63.76236 21330 ft 432 kts 282°
2026-05-08 00:56 18.15265 -63.79333 21739 ft 437 kts 282°
2026-05-08 00:56 18.15772 -63.82501 22170 ft 441 kts 282°
2026-05-08 00:56 18.16296 -63.85693 22570 ft 445 kts 283°
2026-05-08 00:56 18.16833 -63.88919 22966 ft 450 kts 283°
2026-05-08 00:57 18.17378 -63.92173 23348 ft 454 kts 283°
2026-05-08 00:57 18.17929 -63.95460 23705 ft 459 kts 283°
2026-05-08 00:57 18.18482 -63.98770 24049 ft 461 kts 283°
2026-05-08 00:57 18.19036 -64.02096 24472 ft 461 kts 283°
2026-05-08 00:58 18.19590 -64.05421 24913 ft 461 kts 283°
2026-05-08 00:58 18.20143 -64.08751 25324 ft 462 kts 283°
2026-05-08 00:58 18.20697 -64.12081 25703 ft 463 kts 283°
2026-05-08 00:58 18.21258 -64.15424 26081 ft 465 kts 283°
2026-05-08 00:59 18.21821 -64.18779 26457 ft 466 kts 283°
2026-05-08 00:59 18.22384 -64.22139 26827 ft 467 kts 283°
2026-05-08 00:59 18.22949 -64.25515 27193 ft 469 kts 284°
2026-05-08 00:59 18.23512 -64.28892 27541 ft 470 kts 284°
2026-05-08 01:00 18.24077 -64.32288 27895 ft 472 kts 284°
2026-05-08 01:00 18.24645 -64.35688 28222 ft 473 kts 284°
2026-05-08 01:00 18.25213 -64.39105 28565 ft 474 kts 284°
2026-05-08 01:00 18.25782 -64.42531 28883 ft 476 kts 284°
2026-05-08 01:01 18.26353 -64.45961 29178 ft 478 kts 284°
2026-05-08 01:01 18.26925 -64.49410 29461 ft 479 kts 284°
2026-05-08 01:01 18.27498 -64.52869 29758 ft 481 kts 284°
2026-05-08 01:01 18.28073 -64.56342 30051 ft 482 kts 284°
2026-05-08 01:02 18.28645 -64.59820 30362 ft 482 kts 284°
2026-05-08 01:02 18.29218 -64.63288 30695 ft 481 kts 284°
2026-05-08 01:02 18.29791 -64.66759 30972 ft 482 kts 284°
2026-05-08 01:02 18.30169 -64.69062 31145 ft 483 kts 285°
2026-05-08 01:03 18.30739 -64.72553 31421 ft 484 kts 285°
2026-05-08 01:03 18.31309 -64.76047 31742 ft 484 kts 285°
2026-05-08 01:03 18.32063 -64.80680 32163 ft 485 kts 285°
2026-05-08 01:03 18.32632 -64.84179 32462 ft 486 kts 285°
2026-05-08 01:04 18.33017 -64.86550 32666 ft 486 kts 285°
2026-05-08 01:04 18.33587 -64.90064 32983 ft 487 kts 285°
2026-05-08 01:04 18.34157 -64.93575 33321 ft 487 kts 286°
2026-05-08 01:04 18.34726 -64.97090 33649 ft 487 kts 286°
2026-05-08 01:05 18.35301 -65.00600 33864 ft 487 kts 287°
2026-05-08 01:05 18.36113 -65.03990 34084 ft 481 kts 296°
2026-05-08 01:05 18.37344 -65.07286 34402 ft 475 kts 300°
2026-05-08 01:05 18.38615 -65.10429 34801 ft 471 kts 300°
2026-05-08 01:06 18.39911 -65.13578 35211 ft 466 kts 300°
2026-05-08 01:06 18.41195 -65.16704 35557 ft 464 kts 300°
2026-05-08 01:06 18.42464 -65.19821 35835 ft 463 kts 300°
2026-05-08 01:06 18.43723 -65.22942 36116 ft 462 kts 300°
2026-05-08 01:07 18.44965 -65.26051 36440 ft 459 kts 300°
2026-05-08 01:07 18.46195 -65.29149 36774 ft 457 kts 300°
2026-05-08 01:07 18.47414 -65.32228 37072 ft 455 kts 300°
2026-05-08 01:07 18.48629 -65.35299 37339 ft 453 kts 300°
2026-05-08 01:08 18.49839 -65.38356 37625 ft 451 kts 300°
2026-05-08 01:08 18.51045 -65.41406 37937 ft 449 kts 300°
2026-05-08 01:08 18.52247 -65.44442 38084 ft 450 kts 300°
2026-05-08 01:09 18.54667 -65.50555 38069 ft 452 kts 300°
2026-05-08 01:09 18.57068 -65.56643 38073 ft 447 kts 300°
2026-05-08 01:10 18.59423 -65.62620 38074 ft 443 kts 300°
2026-05-08 01:10 18.61778 -65.68596 38074 ft 440 kts 300°
2026-05-08 01:11 18.64118 -65.74540 38079 ft 438 kts 300°
2026-05-08 01:11 18.66478 -65.80528 38090 ft 446 kts 300°
2026-05-08 01:12 18.68867 -65.86612 38077 ft 449 kts 300°
2026-05-08 01:12 18.71256 -65.92707 38077 ft 450 kts 300°
2026-05-08 01:13 18.73627 -65.98766 38075 ft 449 kts 300°
2026-05-08 01:13 18.76009 -66.04856 38072 ft 448 kts 300°
2026-05-08 01:14 18.78380 -66.10919 38063 ft 446 kts 300°
2026-05-08 01:14 18.80733 -66.16949 38066 ft 443 kts 300°
2026-05-08 01:15 18.83077 -66.22956 38073 ft 442 kts 300°
2026-05-08 01:15 18.85410 -66.28946 38071 ft 440 kts 300°
2026-05-08 01:16 18.87733 -66.34914 38071 ft 439 kts 300°
2026-05-08 01:16 18.90054 -66.40882 38075 ft 439 kts 300°
2026-05-08 01:17 18.92459 -66.46799 38069 ft 434 kts 306°
2026-05-08 01:17 18.95901 -66.51879 38086 ft 422 kts 317°
2026-05-08 01:18 18.99707 -66.56573 38074 ft 424 kts 317°
2026-05-08 01:18 19.03543 -66.61316 38067 ft 426 kts 316°
2026-05-08 01:19 19.07378 -66.66104 38080 ft 427 kts 316°
2026-05-08 01:19 19.11211 -66.70916 38077 ft 428 kts 316°
2026-05-08 01:20 19.15053 -66.75751 38077 ft 430 kts 316°
2026-05-08 01:20 19.18914 -66.80613 38078 ft 431 kts 316°
2026-05-08 01:21 19.22753 -66.85449 38082 ft 433 kts 316°
2026-05-08 01:21 19.26627 -66.90334 38085 ft 433 kts 316°
2026-05-08 01:22 19.30500 -66.95221 38075 ft 433 kts 316°
2026-05-08 01:22 19.34370 -67.00109 38081 ft 433 kts 316°
2026-05-08 01:23 19.38242 -67.05003 38083 ft 433 kts 316°
2026-05-08 01:23 19.42114 -67.09899 38078 ft 433 kts 315°
2026-05-08 01:24 19.45960 -67.14767 38085 ft 433 kts 315°
2026-05-08 01:24 19.49825 -67.19663 38082 ft 433 kts 315°
2026-05-08 01:25 19.53689 -67.24563 38080 ft 433 kts 315°
2026-05-08 01:25 19.57551 -67.29467 38080 ft 433 kts 315°
2026-05-08 01:26 19.61416 -67.34376 38083 ft 434 kts 315°
2026-05-08 01:26 19.65286 -67.39293 38085 ft 434 kts 315°
2026-05-08 01:27 19.69156 -67.44215 38086 ft 434 kts 315°
2026-05-08 01:27 19.73032 -67.49149 38081 ft 435 kts 315°
2026-05-08 01:28 19.76888 -67.54063 38090 ft 436 kts 315°
2026-05-08 01:28 19.80776 -67.59022 38084 ft 436 kts 315°
2026-05-08 01:29 19.84658 -67.63977 38092 ft 436 kts 315°
2026-05-08 01:29 19.88540 -67.68939 38089 ft 436 kts 315°
2026-05-08 01:30 19.92419 -67.73898 38085 ft 436 kts 315°
2026-05-08 01:30 19.96292 -67.78855 38085 ft 436 kts 315°
2026-05-08 01:31 20.00139 -67.83780 38086 ft 435 kts 315°
2026-05-08 01:31 20.04005 -67.88736 38087 ft 435 kts 315°
2026-05-08 01:32 20.07872 -67.93697 38082 ft 435 kts 315°
2026-05-08 01:32 20.11731 -67.98652 38087 ft 435 kts 315°
2026-05-08 01:33 20.15594 -68.03616 38093 ft 435 kts 315°
2026-05-08 01:33 20.19448 -68.08574 38090 ft 435 kts 315°
2026-05-08 01:34 20.23305 -68.13539 38089 ft 435 kts 314°
2026-05-08 01:34 20.27137 -68.18474 38091 ft 435 kts 314°
2026-05-08 01:35 20.30991 -68.23445 38089 ft 435 kts 314°
2026-05-08 01:35 20.34682 -68.28210 38087 ft 435 kts 314°
2026-05-08 01:36 20.38430 -68.33053 38094 ft 435 kts 314°
2026-05-08 01:36 20.42260 -68.38005 38089 ft 434 kts 314°
2026-05-08 01:37 20.45737 -68.43125 38102 ft 438 kts 307°
2026-05-08 01:37 20.48948 -68.48650 38095 ft 438 kts 306°
2026-05-08 01:38 20.52153 -68.54185 38087 ft 439 kts 306°
2026-05-08 01:38 20.55221 -68.59444 38090 ft 439 kts 306°
2026-05-08 01:39 20.58454 -68.64970 38092 ft 439 kts 306°
2026-05-08 01:39 20.61691 -68.70496 38091 ft 439 kts 306°
2026-05-08 01:40 20.64923 -68.76018 38090 ft 438 kts 306°
2026-05-08 01:40 20.68150 -68.81540 38093 ft 438 kts 306°
2026-05-08 01:41 20.71373 -68.87063 38084 ft 438 kts 306°
2026-05-08 01:41 20.74587 -68.92577 38084 ft 437 kts 306°